DELTA 1 DEB, 42639

Orbit data source: Space-Track

DELTA 1 DEB, 42639 is space debris in SSO originally from a launch on Thu, 12 Jun 1975 UTC launched from the Air Force Western Test Range (AFWTR). Debris objects in space refer to the collection of defunct objects orbiting the Earth. Examples of debris include non-operational satellites, rocket bodies, and fragments generated from explosions, collisions, or faulty payload assembly.

Loading next visibility...
Identifier
42639, 1975-052LY
Orbit
SSO
Country
Flag of USUS
Related business
Manufacturer
Unknown
Mission
Spacecraft
Bus & Motor
Unknown
Mass
Unknown
Launch date (UTC)
1975-06-12 (51 years ago)
Launch vehicle
Unknown
Launch site
Air Force Western Test Range (AFWTR)
Object type
Payload
Rocket body
Debris
Shape & HBR
Unknown shape, 0.1 m
Radar Cross Section
Small (<0.1 m²)

Expand to show TLE details & history
Last TLE update: 6 days ago

TLE from 6 days ago
0 DELTA 1 DEB
1 42639U 75052LY  26167.75966720  .00000017  00000-0  11931-3 0  9993
2 42639  99.6953 348.7723 0071303  30.2199 349.5101 13.31693911610758
Epoch: 2026-06-16T18:13Z
TLE epoch observation values (Epoch: 2026-06-16T18:13:55.246Z)
Latitude
19.28966°
Longitude
166.85456°
Altitude
1,089.975 km
Speed
7.334 km/s
True Right ascension
23h 01m 26s
True Declination
19° 11' 15"
Sunlit
Object was in daylight at epoch
Visualization orbit readout
Latitude
Unknown
Longitude
Unknown
Altitude
Unknown
Speed
Unknown
Apparent Right ascension
Unknown
Apparent Declination
Unknown
Sunlit
N/A
Visualization observer readout
Local Sidereal Time
21:44:01
Azimuth
Unknown
Elevation
Unknown
Doppler factor
Unknown
Orbital elements
Apogee altitude
1,191.296 km
Perigee altitude
1,084.116 km
Semi-major axis
7,515.843 km
Eccentricity
0.00713
Inclination
99.6953°
RAAN
348.7723°
Arg. of periapsis
30.2199°
True anomaly
349.36003°
Mean anomaly
349.5101°
Eccentric anomaly
349.4352°
Mean motion
3.33102 °/min
Orbital period
108.08 mins
BSTAR
0.00011931
Loading maneuver chart data...
Computing Atmospheric mass density...
Loading historical data...
Loading historical data...
Loading historical data...
Loading historical data...
Loading historical data...
Loading historical data...
Loading historical data...

Documentation

Showing up to 5 results
|